Location: Hamilton
(43.2500°N, 79.8330°W)
Time: 11:48:06
(UTC-04:00)

Amateur Radio Satellites - All Passes

Search period start: 03 June 2015 11:18
Search period end: 04 June 2015 11:18
Location: Hamilton, 43.2500°N, 79.8330°W

Satellite Date Start Highest point End Downlink Frequencies (MHz)
Time Altitude Azimuth
HUMSAT D 03 Jun 11:27:53 11:31:47 39° 97° (E) 11:35:38 437.325/437.525
DOVE 4 03 Jun 11:30:20 11:33:40 18° 297° (WNW) 11:36:43 437.250
CUBEBUG 1 03 Jun 11:33:09 11:34:52 12° 88° (E) 11:36:51 437.445
NANOSAT C BR1 03 Jun 11:35:34 11:39:52 85° 72° (ENE) 11:44:11 145.865
CUBEBUG 2 03 Jun 11:40:00 11:44:08 42° 289° (WNW) 11:48:07 437.445
BUGSAT 1 03 Jun 11:40:37 11:44:47 65° 75° (ENE) 11:49:02 437.445
DELFI C3 03 Jun 11:42:00 11:45:52 46° 288° (WNW) 11:49:43 145.870
CINEMA 3 03 Jun 11:44:30 11:48:03 22° 294° (WNW) 11:51:24 145.822/145.860
QB50P2 03 Jun 11:49:55 11:54:11 65° 259° (W) 11:58:29 145.880/145.840
HO-68 03 Jun 11:52:50 11:58:34 26° 302° (WNW) 12:04:07 435.675
ANTELSAT 03 Jun 11:53:56 11:58:01 29° 265° (W) 12:02:00 437.575/2403.000
DUCHIFAT 1 03 Jun 11:55:04 11:59:17 60° 259° (W) 12:03:34 145.980
VELOX 1 03 Jun 11:56:58 12:01:12 41° 98° (E) 12:05:27 145.980
FUNcube-1 03 Jun 11:57:23 12:01:27 43° 288° (WNW) 12:05:23 145.935
GONETS M04 03 Jun 11:57:58 12:04:58 29° 83° (E) 12:12:14
POPSAT HIP 1 03 Jun 12:00:08 12:04:19 51° 261° (W) 12:08:33 437.405
CUSAT 1 03 Jun 12:03:11 12:10:39 46° 91° (E) 12:18:25 437.405
50 SAT 03 Jun 12:03:33 12:07:21 55° 100° (E) 12:11:07 437.505
UWE-3 03 Jun 12:10:11 12:13:48 26° 292° (WNW) 12:17:15 435.000/436.395/437.385
TIGRISAT 03 Jun 12:24:16 12:27:12 16° 270° (W) 12:29:56 435.000
UKube-1 03 Jun 12:25:40 12:29:57 53° 287° (WNW) 12:34:10 .
DANDE 03 Jun 12:27:43 12:35:21 53° 92° (E) 12:43:38 436.750
AISAT 03 Jun 12:31:30 12:36:02 82° 286° (WNW) 12:40:30 437.250
ESTCUBE 1 03 Jun 12:32:15 12:36:46 61° 101° (E) 12:41:15 437.505/2401.250
Oscar 11 03 Jun 12:37:00 12:38:33 12° 298° (WNW) 12:39:54 145.826/435.025
ZACube-1 03 Jun 12:42:44 12:45:22 16° 296° (WNW) 12:47:50 437.345
QB50P1 03 Jun 12:44:46 12:47:47 18° 269° (W) 12:50:41 145.935-145.965
DX 1 03 Jun 12:47:10 12:51:03 31° 292° (WNW) 12:54:52 434.975-435.025
POLYITAN 1 03 Jun 12:51:58 12:54:35 15° 270° (W) 12:57:03 437.675
HUMSAT D 03 Jun 13:04:21 13:07:16 18° 294° (WNW) 13:10:04 437.325/437.525
TISAT 1 03 Jun 13:05:08 13:08:33 24° 94° (E) 13:12:01 437.305
CUBEBUG 1 03 Jun 13:07:20 13:11:46 66° 286° (WNW) 13:16:09 437.445
SPROUT 03 Jun 13:14:03 13:18:10 42° 98° (E) 13:22:16 437.525
RS-15 03 Jun 13:17:05 13:25:47 24° 1° (N) 13:34:47 29.354- 29.394
BUGSAT 1 03 Jun 13:19:16 13:20:47 11° 273° (W) 13:22:04 437.445
Cosmos 2499 03 Jun 13:25:11 13:29:18 16° 81° (E) 13:33:42 435.465 / 435.565
Oscar 19 03 Jun 13:31:46 13:36:48 54° 72° (ENE) 13:41:53 437.125/150
VELOX 1 03 Jun 13:34:07 13:37:31 21° 295° (WNW) 13:40:48 145.980
50 SAT 03 Jun 13:39:57 13:41:39 12° 296° (WNW) 13:43:11 437.505
CUSAT 1 03 Jun 13:45:40 13:53:24 45° 290° (WNW) 14:01:11 437.405
O/OREOS (USA 219) 03 Jun 13:48:00 13:50:52 17° 102° (ESE) 13:53:53 437.305
Gurwin Techsat 1B 03 Jun 13:52:22 13:56:36 26° 65° (ENE) 14:00:57 435.225
GONETS M04 03 Jun 13:52:26 14:01:15 65° 283° (WNW) 14:10:02
AO-7 03 Jun 13:58:29 14:02:25 15° 44° (NE) 14:06:46 29.400- 29.500
ITAMSAT 1 03 Jun 14:04:52 14:09:26 33° 67° (ENE) 14:14:06 435.822/435.867
ESTCUBE 1 03 Jun 14:10:27 14:13:11 16° 297° (WNW) 14:15:47 437.505/2401.250
DANDE 03 Jun 14:11:19 14:18:53 40° 292° (WNW) 14:26:47 436.750
JAS-2 03 Jun 14:21:33 14:22:53 11° 58° (ENE) 14:24:31 435.910
TISAT 1 03 Jun 14:40:34 14:44:22 31° 291° (WNW) 14:48:06 437.305
ITUPSAT 1 03 Jun 14:41:48 14:46:20 40° 98° (E) 14:50:52 437.325
BEESAT 03 Jun 14:43:59 14:48:33 43° 99° (E) 14:53:07 436.000
SPROUT 03 Jun 14:50:50 14:54:00 19° 294° (WNW) 14:57:01 437.525
SWISSCUBE 03 Jun 14:53:46 14:58:31 59° 101° (E) 15:03:15 437.505
Oscar 19 03 Jun 15:12:43 15:16:33 20° 269° (W) 15:20:13 437.125/150
Cosmos 2499 03 Jun 15:13:46 15:21:39 90° 290° (WNW) 15:29:00 435.465 / 435.565
O/OREOS (USA 219) 03 Jun 15:25:35 15:29:58 48° 298° (WNW) 15:34:19 437.305
Gurwin Techsat 1B 03 Jun 15:31:18 15:36:22 45° 262° (W) 15:41:28 435.225
RS-15 03 Jun 15:31:57 15:42:28 40° 34° (NE) 15:53:34 29.354- 29.394
CUSAT 1 03 Jun 15:37:03 15:38:27 10° 312° (NW) 15:39:16 437.405
HORYU 2 03 Jun 15:39:19 15:43:28 40° 70° (ENE) 15:47:39 437.375
ITAMSAT 1 03 Jun 15:44:19 15:48:57 32° 264° (W) 15:53:34 435.822/435.867
AO-7 03 Jun 15:45:36 15:53:39 58° 65° (ENE) 16:01:48 29.400- 29.500
KKS-1 03 Jun 15:45:45 15:49:48 34° 96° (E) 15:53:52 437.445
GONETS M04 03 Jun 15:55:47 16:00:21 14° 307° (NW) 16:04:21
JAS-2 03 Jun 16:01:10 16:07:21 72° 74° (ENE) 16:12:53 435.910
BEESAT 2 03 Jun 16:04:59 16:08:15 24° 114° (ESE) 16:11:37 435.950
ITUPSAT 1 03 Jun 16:20:10 16:24:01 24° 294° (WNW) 16:27:47 437.325
BEESAT 03 Jun 16:22:25 16:26:09 22° 295° (WNW) 16:29:46 436.000
STARS 03 Jun 16:28:50 16:33:13 60° 101° (E) 16:37:34 437.465
SWISSCUBE 03 Jun 16:32:47 16:35:57 17° 297° (WNW) 16:38:57 437.505
MOZHAYETS 4 03 Jun 16:41:01 16:42:34 12° 87° (E) 16:44:24
BEESAT 3 03 Jun 16:41:26 16:45:29 71° 122° (ESE) 16:49:36 437.485
AIST 2 03 Jun 16:49:39 16:52:45 20° 113° (ESE) 16:55:58 435.215
Cosmos 2499 03 Jun 17:10:56 17:15:56 17° 299° (WNW) 17:20:24 435.465 / 435.565
HORYU 2 03 Jun 17:16:53 17:20:18 21° 268° (W) 17:23:35 437.375
CUTE-I 03 Jun 17:21:30 17:24:45 17° 61° (ENE) 17:28:12 437.470
KKS-1 03 Jun 17:22:38 17:26:19 25° 293° (WNW) 17:29:53 437.445
YUBILEINY 03 Jun 17:35:05 17:42:59 38° 69° (ENE) 17:51:00 435.215
AO-7 03 Jun 17:39:31 17:46:54 33° 265° (W) 17:54:10 29.400- 29.500
BEESAT 2 03 Jun 17:42:20 17:46:11 36° 312° (NW) 17:50:03 435.950
Cubesat XI-IV 03 Jun 17:43:31 17:47:48 26° 65° (ENE) 17:52:13 437.490
RS-15 03 Jun 17:44:33 17:56:12 79° 239° (WSW) 18:08:17 29.354- 29.394
Cosmos 2491 03 Jun 17:46:12 17:51:51 20° 79° (E) 17:57:57 435.465 / 435.565
JAS-2 03 Jun 17:49:03 17:52:59 17° 270° (W) 17:56:26 435.910
STARS 03 Jun 18:06:40 18:09:13 15° 297° (WNW) 18:11:36 437.465
MOZHAYETS 4 03 Jun 18:15:49 18:20:24 72° 285° (WNW) 18:24:58
BEESAT 3 03 Jun 18:21:16 18:23:57 16° 321° (NW) 18:26:34 437.485
AIST 2 03 Jun 18:26:58 18:31:03 44° 309° (NW) 18:35:12 435.215
CUBESAT XI-V 03 Jun 18:42:15 18:45:35 19° 91° (E) 18:49:02 437.345
HO-68 03 Jun 18:51:36 18:54:02 12° 49° (NE) 18:56:52 435.675
CUTE-I 03 Jun 18:59:00 19:04:18 72° 257° (WSW) 19:09:40 437.470
GOMX 1 03 Jun 19:05:26 19:06:22 11° 57° (ENE) 19:07:37 467.674
Cosmos 2504 03 Jun 19:10:47 19:13:46 13° 57° (ENE) 19:17:11 435.465 / 435.565
Cubesat XI-IV 03 Jun 19:22:37 19:27:42 44° 262° (W) 19:32:48 437.490
DOVE 4 03 Jun 19:25:03 19:25:20 10° 58° (ENE) 19:25:56 437.250
YUBILEINY 03 Jun 19:31:49 19:40:06 50° 270° (W) 19:48:18 435.215
PRISM 03 Jun 19:35:45 19:39:13 25° 95° (E) 19:42:44 437.425
Cosmos 2491 03 Jun 19:38:51 19:47:41 87° 278° (W) 19:56:37 435.465 / 435.565
BRITE-PL 03 Jun 19:42:27 19:47:15 33° 67° (ENE) 19:52:18 437.365/2234.400
AIST 1 03 Jun 19:49:24 19:53:13 33° 91° (E) 19:57:07
RS-15 03 Jun 19:59:08 20:07:10 20° 259° (W) 20:14:36 29.354- 29.394
STRAND 1 03 Jun 20:11:57 20:17:02 57° 100° (E) 20:22:07 437.568
CUBESAT XI-V 03 Jun 20:18:46 20:23:18 47° 288° (WNW) 20:27:48 437.345
HO-68 03 Jun 20:33:28 20:40:26 57° 68° (ENE) 20:47:27 435.675
GOMX 1 03 Jun 20:38:13 20:43:31 66° 74° (ENE) 20:49:01 467.674
ISS 03 Jun 20:54:56 20:57:55 36° 140° (SE) 21:00:57 145.825
DOVE 4 03 Jun 20:56:58 21:02:11 66° 74° (ENE) 21:07:30 437.250
DELFI C3 03 Jun 20:58:06 20:59:18 11° 63° (ENE) 21:00:41 145.870
Cosmos 2504 03 Jun 21:01:34 21:08:45 75° 80° (E) 21:16:03 435.465 / 435.565
AUBIESAT-1 03 Jun 21:01:58 21:05:10 43° 105° (ESE) 21:08:29 437.475
M-CUBED/EXP-1 PRIME 03 Jun 21:02:12 21:05:27 52° 105° (ESE) 21:08:50 437.505
CUBEBUG 2 03 Jun 21:03:19 21:06:42 20° 66° (ENE) 21:10:10 437.445
CINEMA 3 03 Jun 21:08:43 21:13:26 43° 72° (ENE) 21:18:11 145.822/145.860
PRISM 03 Jun 21:11:02 21:14:40 29° 291° (WNW) 21:18:15 437.425
CANX-2 03 Jun 21:11:28 21:15:43 87° 254° (WSW) 21:19:59 2200.000
CUTE 1.7 + AOD 2 03 Jun 21:13:38 21:17:53 89° 82° (E) 21:22:09 437.475
FUNcube-1 03 Jun 21:19:01 21:21:57 18° 65° (ENE) 21:25:01 145.935
BRITE-PL 03 Jun 21:20:40 21:25:40 37° 266° (W) 21:30:52 437.365/2234.400
COMPASS 1 03 Jun 21:21:34 21:25:43 73° 76° (ENE) 21:29:53 437.405
SEEDS 03 Jun 21:22:27 21:26:40 88° 257° (WSW) 21:30:53 437.485
AAUSAT CUBESAT 2 03 Jun 21:26:09 21:30:17 70° 76° (ENE) 21:34:25 437.432
AIST 1 03 Jun 21:27:37 21:30:59 21° 289° (WNW) 21:34:18
UWE-3 03 Jun 21:31:26 21:35:27 30° 69° (ENE) 21:39:28 435.000/436.395/437.385
Cosmos 2491 03 Jun 21:39:53 21:46:09 20° 302° (WNW) 21:52:02 435.465 / 435.565
UKube-1 03 Jun 21:47:16 21:49:47 16° 63° (ENE) 21:52:27 .
STRAND 1 03 Jun 21:52:07 21:55:51 20° 297° (WNW) 21:59:27 437.568
Oscar 11 03 Jun 21:54:08 21:58:24 66° 75° (ENE) 22:02:42 145.826/435.025
AISAT 03 Jun 21:56:59 21:58:30 12° 61° (ENE) 22:00:15 437.250
VERMONT LUNAR 03 Jun 22:01:36 22:02:28 11° 150° (SSE) 22:03:26 437.305
ZACube-1 03 Jun 22:01:45 22:06:07 47° 73° (ENE) 22:10:27 437.345
GONETS M04 03 Jun 22:06:55 22:11:09 15° 53° (NE) 22:15:56
DX 1 03 Jun 22:07:49 22:11:27 27° 68° (ENE) 22:15:11 434.975-435.025
GOMX 1 03 Jun 22:18:32 22:22:12 18° 273° (W) 22:25:43 467.674
HUMSAT D 03 Jun 22:20:34 22:24:24 33° 70° (ENE) 22:28:16 437.325/437.525
HO-68 03 Jun 22:22:26 22:28:35 29° 267° (W) 22:34:36 435.675
DELFI C3 03 Jun 22:29:56 22:33:56 67° 259° (W) 22:37:56 145.870
CUBEBUG 1 03 Jun 22:30:48 22:32:43 13° 62° (ENE) 22:34:50 437.445
ISS 03 Jun 22:31:18 22:34:20 35° 337° (NNW) 22:37:23 145.825
DOVE 4 03 Jun 22:36:58 22:40:28 17° 273° (W) 22:43:45 437.250
AUBIESAT-1 03 Jun 22:38:17 22:39:42 12° 300° (WNW) 22:41:01 437.475
CUBEBUG 2 03 Jun 22:38:30 22:43:07 48° 262° (W) 22:47:39 437.445
M-CUBED/EXP-1 PRIME 03 Jun 22:39:22 22:40:01 10° 300° (WNW) 22:40:30 437.505
CUSAT 1 03 Jun 22:42:57 22:48:23 29° 63° (ENE) 22:52:46 437.405
CINEMA 3 03 Jun 22:46:45 22:50:49 24° 268° (W) 22:54:45 145.822/145.860
50 SAT 03 Jun 22:49:04 22:52:43 36° 72° (ENE) 22:56:23 437.505
FUNcube-1 03 Jun 22:53:30 22:57:57 51° 261° (W) 23:02:21 145.935
VELOX 1 03 Jun 22:55:28 22:59:38 42° 71° (ENE) 23:03:53 145.980
Cosmos 2504 03 Jun 22:56:35 23:01:27 19° 278° (W) 23:06:01 435.465 / 435.565
UNISAT 6 03 Jun 23:01:41 23:04:35 18° 91° (E) 23:07:36 437.425
AAUSAT CUBESAT 2 03 Jun 23:05:59 23:06:27 10° 273° (W) 23:06:40 437.432
UWE-3 03 Jun 23:07:49 23:11:56 30° 265° (W) 23:15:57 435.000/436.395/437.385
DANDE 03 Jun 23:10:43 23:17:20 40° 68° (ENE) 23:22:29 436.750
UKube-1 03 Jun 23:21:16 23:25:31 55° 259° (W) 23:29:49 .
NANOSAT C BR1 03 Jun 23:21:21 23:23:10 13° 88° (E) 23:25:12 145.865
BEESAT 3 03 Jun 23:23:43 23:24:20 10° 32° (NNE) 23:25:07 437.485
AISAT 03 Jun 23:30:01 23:34:30 81° 257° (WSW) 23:39:01 437.250
ESTCUBE 1 03 Jun 23:32:45 23:37:11 63° 74° (ENE) 23:41:39 437.505/2401.250
Oscar 11 03 Jun 23:33:28 23:35:07 12° 272° (W) 23:36:31 145.826/435.025
QB50P2 03 Jun 23:35:06 23:38:07 19° 92° (E) 23:41:13 145.880/145.840
VERMONT LUNAR 03 Jun 23:36:06 23:39:06 34° 165° (SSE) 23:42:06 437.305
PCSat 03 Jun 23:36:47 23:42:05 58° 116° (ESE) 23:47:26 145.827
ZACube-1 03 Jun 23:39:32 23:42:44 18° 269° (W) 23:45:47 437.345
DUCHIFAT 1 03 Jun 23:39:32 23:42:38 20° 92° (E) 23:45:49 145.980
DX 1 03 Jun 23:43:46 23:47:37 30° 264° (W) 23:51:29 434.975-435.025
ANTELSAT 03 Jun 23:44:21 23:48:35 52° 99° (E) 23:52:45 437.575/2403.000
POPSAT HIP 1 03 Jun 23:44:47 23:48:11 23° 93° (E) 23:51:38 437.405
O/OREOS (USA 219) 03 Jun 23:55:14 23:59:27 40° 61° (ENE) 00:03:41 437.305
HUMSAT D 03 Jun 23:56:47 00:00:14 22° 267° (W) 00:03:34 437.325/437.525
TISAT 1 03 Jun 23:58:34 00:01:46 22° 66° (ENE) 00:05:05 437.305
GONETS M04 04 Jun 00:01:25 00:10:11 68° 78° (ENE) 00:18:51
CUBEBUG 1 04 Jun 00:04:11 00:08:34 70° 258° (WSW) 00:12:59 437.445
ISS 04 Jun 00:09:01 00:11:24 18° 357° (N) 00:13:47 145.825
SPROUT 04 Jun 00:09:09 00:13:08 37° 71° (ENE) 00:17:10 437.525
TIGRISAT 04 Jun 00:12:55 00:17:15 79° 285° (WNW) 00:21:30 435.000
PHONESAT 2.4 04 Jun 00:14:58 00:17:53 25° 158° (SSE) 00:20:50 2401.200-2431.200
BEESAT 2 04 Jun 00:22:43 00:26:03 24° 43° (NE) 00:29:25 435.950
50 SAT 04 Jun 00:24:49 00:27:35 18° 268° (W) 00:30:14 437.505
CUSAT 1 04 Jun 00:25:33 00:31:17 38° 271° (W) 00:35:38 437.405
QB50P1 04 Jun 00:27:13 00:31:29 69° 102° (ESE) 00:35:42 145.935-145.965
VELOX 1 04 Jun 00:33:09 00:36:26 19° 268° (W) 00:39:36 145.980
POLYITAN 1 04 Jun 00:34:13 00:38:31 84° 103° (ESE) 00:42:45 437.675
UNISAT 6 04 Jun 00:37:32 00:41:38 41° 289° (WNW) 00:45:38 437.425
DANDE 04 Jun 00:54:21 01:00:22 32° 274° (W) 01:05:02 436.750
NANOSAT C BR1 04 Jun 00:55:16 00:59:28 58° 286° (WNW) 01:03:38 145.865
BUGSAT 1 04 Jun 00:57:09 01:01:26 82° 283° (WNW) 01:05:39 437.445
BEESAT 3 04 Jun 00:59:12 01:03:15 59° 53° (NE) 01:07:13 437.485
Cosmos 2499 04 Jun 01:03:36 01:09:43 31° 69° (ENE) 01:16:06 435.465 / 435.565
AIST 2 04 Jun 01:09:39 01:12:58 22° 42° (NE) 01:16:18 435.215
QB50P2 04 Jun 01:10:12 01:14:12 39° 289° (WNW) 01:18:09 145.880/145.840
ESTCUBE 1 04 Jun 01:12:19 01:14:34 13° 272° (W) 01:16:35 437.505/2401.250
VERMONT LUNAR 04 Jun 01:12:50 01:16:02 52° 181° (S) 01:19:11 437.305
DUCHIFAT 1 04 Jun 01:14:40 01:18:36 37° 289° (WNW) 01:22:29 145.980
POPSAT HIP 1 04 Jun 01:20:18 01:24:07 32° 290° (WNW) 01:27:52 437.405
PCSat 04 Jun 01:21:24 01:25:55 25° 316° (NW) 01:30:21 145.827
ANTELSAT 04 Jun 01:22:19 01:24:59 16° 296° (WNW) 01:27:29 437.575/2403.000
SO-50 04 Jun 01:25:19 01:29:41 40° 117° (ESE) 01:34:15 436.795
TISAT 1 04 Jun 01:33:24 01:37:21 36° 263° (W) 01:41:19 437.305
O/OREOS (USA 219) 04 Jun 01:35:15 01:38:39 21° 257° (WSW) 01:41:55 437.305
Oscar 19 04 Jun 01:43:26 01:46:40 17° 89° (E) 01:50:04 437.125/150
ISS 04 Jun 01:45:45 01:48:34 26° 17° (NNE) 01:51:24 145.825
SPROUT 04 Jun 01:46:02 01:49:22 21° 268° (W) 01:52:37 437.525
ITUPSAT 1 04 Jun 01:49:34 01:54:10 53° 72° (ENE) 01:58:50 437.325
BEESAT 04 Jun 01:51:23 01:56:01 56° 72° (ENE) 02:00:42 436.000
PHONESAT 2.4 04 Jun 01:52:14 01:55:40 51° 174° (S) 01:59:05 2401.200-2431.200
GONETS M04 04 Jun 01:59:20 02:06:22 27° 278° (W) 02:13:04
BEESAT 2 04 Jun 02:00:26 02:04:18 40° 243° (WSW) 02:08:05 435.950
SWISSCUBE 04 Jun 02:01:15 02:05:59 77° 75° (ENE) 02:10:46 437.505
QB50P1 04 Jun 02:04:59 02:06:50 12° 298° (WNW) 02:08:30 145.935-145.965
POLYITAN 1 04 Jun 02:13:01 02:13:49 10° 299° (WNW) 02:14:23 437.675
BEESAT 3 04 Jun 02:38:36 02:40:47 14° 249° (WSW) 02:42:47 437.485
KKS-1 04 Jun 02:44:50 02:48:55 36° 70° (ENE) 02:53:03 437.445
AIST 2 04 Jun 02:47:43 02:51:48 47° 241° (WSW) 02:55:47 435.215
VERMONT LUNAR 04 Jun 02:50:01 02:52:55 30° 198° (SSW) 02:55:48 437.305
Cosmos 2499 04 Jun 02:56:23 03:03:08 48° 269° (W) 03:10:03 435.465 / 435.565
SO-50 04 Jun 03:06:08 03:10:22 30° 316° (NW) 03:14:40 436.795
Oscar 19 04 Jun 03:21:26 03:26:31 61° 288° (WNW) 03:31:33 437.125/150
ISS 04 Jun 03:21:58 03:25:13 69° 216° (SW) 03:28:28 145.825
STARS 04 Jun 03:26:28 03:30:50 61° 74° (ENE) 03:35:15 437.465
ITUPSAT 1 04 Jun 03:29:13 03:32:27 17° 270° (W) 03:35:31 437.325
PHONESAT 2.4 04 Jun 03:30:12 03:33:33 44° 191° (SSW) 03:36:54 2401.200-2431.200
BEESAT 04 Jun 03:31:14 03:34:18 16° 270° (W) 03:37:10 436.000
SWISSCUBE 04 Jun 03:42:39 03:44:31 12° 273° (W) 03:46:05 437.505
MOZHAYETS 4 04 Jun 03:44:10 03:46:24 14° 63° (ENE) 03:48:50
Gurwin Techsat 1B 04 Jun 03:46:03 03:51:22 67° 102° (ESE) 03:56:40 435.225
AO-7 04 Jun 03:47:59 03:52:23 16° 86° (E) 03:57:20 29.400- 29.500
ITAMSAT 1 04 Jun 03:55:14 04:00:30 83° 102° (ESE) 04:05:45 435.822/435.867
Cosmos 2491 04 Jun 03:56:39 03:56:55 10° 47° (NE) 03:57:54 435.465 / 435.565
KKS-1 04 Jun 04:22:01 04:25:39 23° 267° (W) 04:29:13 437.445
JAS-2 04 Jun 04:53:24 04:58:32 54° 100° (E) 05:04:02 435.910
STARS 04 Jun 05:05:26 05:07:46 13° 271° (W) 05:09:53 437.465
HORYU 2 04 Jun 05:05:37 05:10:03 70° 103° (ESE) 05:14:27 437.375
PHONESAT 2.4 04 Jun 05:08:49 05:11:13 17° 207° (SSW) 05:13:35 2401.200-2431.200
MOZHAYETS 4 04 Jun 05:18:36 05:23:08 68° 259° (W) 05:27:42
Gurwin Techsat 1B 04 Jun 05:27:16 05:30:52 18° 298° (WNW) 05:34:17 435.225
ITAMSAT 1 04 Jun 05:36:30 05:39:24 15° 300° (WNW) 05:42:05 435.822/435.867
AO-7 04 Jun 05:38:17 05:46:42 79° 106° (ESE) 05:55:06 29.400- 29.500
CUBESAT XI-V 04 Jun 05:46:54 05:50:21 22° 66° (ENE) 05:53:55 437.345
Cosmos 2491 04 Jun 05:48:10 05:56:41 51° 73° (ENE) 06:05:11 435.465 / 435.565
STRAND 1 04 Jun 05:53:16 05:55:24 13° 59° (ENE) 05:57:47 437.568
AIST 1 04 Jun 05:57:46 05:58:21 10° 64° (ENE) 05:59:11
RS-15 04 Jun 06:06:01 06:09:12 12° 97° (E) 06:13:28 29.354- 29.394
PRISM 04 Jun 06:27:15 06:30:23 22° 67° (ENE) 06:33:36 437.425
YUBILEINY 04 Jun 06:37:27 06:45:23 42° 88° (E) 06:53:25 435.215
JAS-2 04 Jun 06:39:33 06:43:25 21° 296° (WNW) 06:47:18 435.910
PCSat 04 Jun 06:41:49 06:44:17 13° 33° (NNE) 06:46:55 145.827
HORYU 2 04 Jun 06:44:02 06:46:11 13° 298° (WNW) 06:48:09 437.375
CUTE-I 04 Jun 07:15:07 07:20:12 42° 98° (E) 07:25:18 437.470
CUBESAT XI-V 04 Jun 07:23:10 07:27:32 42° 262° (W) 07:31:58 437.345
STRAND 1 04 Jun 07:28:50 07:33:57 90° 30° (NNE) 07:39:06 437.568
AO-7 04 Jun 07:32:04 07:38:47 27° 306° (NW) 07:45:17 29.400- 29.500
AIST 1 04 Jun 07:32:17 07:36:43 79° 263° (W) 07:41:07
Cubesat XI-IV 04 Jun 07:38:25 07:43:47 68° 102° (ESE) 07:49:09 437.490
Cosmos 2491 04 Jun 07:45:27 07:53:22 37° 274° (W) 08:01:03 435.465 / 435.565
AUBIESAT-1 04 Jun 07:50:39 07:54:30 80° 72° (ENE) 07:58:06 437.475
M-CUBED/EXP-1 PRIME 04 Jun 07:51:22 07:55:17 86° 250° (WSW) 07:58:56 437.505
PRISM 04 Jun 08:01:59 08:05:41 32° 263° (W) 08:09:23 437.425
RS-15 04 Jun 08:08:53 08:19:29 63° 116° (ESE) 08:30:27 29.354- 29.394
SO-50 04 Jun 08:16:37 08:18:39 12° 28° (NNE) 08:20:49 436.795
PCSat 04 Jun 08:23:36 08:28:58 58° 55° (NE) 08:34:19 145.827
YUBILEINY 04 Jun 08:33:53 08:42:12 45° 288° (WNW) 08:50:27 435.215
GOMX 1 04 Jun 08:40:47 08:44:18 19° 88° (E) 08:47:49 467.674
CUTE-I 04 Jun 08:55:34 09:00:07 28° 295° (WNW) 09:04:33 437.470
DOVE 4 04 Jun 08:57:00 08:59:59 17° 87° (E) 09:03:03 437.250
CANX-2 04 Jun 08:57:04 08:59:26 15° 89° (E) 09:01:57 2200.000
CUTE 1.7 + AOD 2 04 Jun 08:59:18 09:01:30 14° 89° (E) 09:03:52 437.475
COMPASS 1 04 Jun 09:06:35 09:07:23 11° 87° (E) 09:08:27 437.405
SEEDS 04 Jun 09:07:13 09:09:23 14° 89° (E) 09:11:43 437.485
STRAND 1 04 Jun 09:12:35 09:14:00 11° 275° (W) 09:15:04 437.568
Cubesat XI-IV 04 Jun 09:19:45 09:23:24 18° 299° (WNW) 09:26:53 437.490
BRITE-PL 04 Jun 09:24:23 09:29:56 77° 100° (E) 09:35:05 437.365/2234.400
TIGRISAT 04 Jun 09:38:51 09:40:35 12° 62° (ENE) 09:42:32 435.000
Cosmos 2504 04 Jun 09:40:28 09:48:23 63° 94° (E) 09:55:49 435.465 / 435.565
Oscar 11 04 Jun 09:42:53 09:43:57 11° 87° (E) 09:45:16 145.826/435.025
HO-68 04 Jun 09:47:23 09:54:22 53° 100° (E) 10:01:19 435.675
SO-50 04 Jun 09:55:33 10:00:25 51° 50° (NE) 10:05:12 436.795
UNISAT 6 04 Jun 10:01:36 10:04:59 21° 66° (ENE) 10:08:27 437.425
PCSat 04 Jun 10:07:56 10:12:00 21° 252° (WSW) 10:15:54 145.827
DELFI C3 04 Jun 10:09:22 10:11:38 15° 90° (E) 10:14:03 145.870
NANOSAT C BR1 04 Jun 10:15:36 10:17:19 13° 63° (ENE) 10:19:15 145.865
GOMX 1 04 Jun 10:17:48 10:22:53 53° 288° (WNW) 10:27:35 467.674
RS-15 04 Jun 10:22:04 10:32:29 45° 322° (NW) 10:43:11 29.354- 29.394
CUBEBUG 2 04 Jun 10:29:03 10:32:55 32° 95° (E) 10:36:43 437.445
QB50P2 04 Jun 10:29:26 10:32:18 18° 65° (ENE) 10:35:17 145.880/145.840
CANX-2 04 Jun 10:31:37 10:35:42 48° 287° (WNW) 10:39:46 2200.000
DUCHIFAT 1 04 Jun 10:33:17 10:36:12 19° 66° (ENE) 10:39:14 145.980
DOVE 4 04 Jun 10:33:25 10:38:16 55° 287° (WNW) 10:42:45 437.250
CUTE 1.7 + AOD 2 04 Jun 10:33:41 10:37:47 51° 287° (WNW) 10:41:52 437.475
POPSAT HIP 1 04 Jun 10:38:50 10:42:04 22° 67° (ENE) 10:45:24 437.405
COMPASS 1 04 Jun 10:39:28 10:43:36 67° 285° (WNW) 10:47:43 437.405
CINEMA 3 04 Jun 10:39:53 10:44:29 87° 103° (ESE) 10:48:50 145.822/145.860
FUNcube-1 04 Jun 10:41:24 10:44:58 26° 94° (E) 10:48:31 145.935
SEEDS 04 Jun 10:41:28 10:45:33 51° 287° (WNW) 10:49:36 437.485
AAUSAT CUBESAT 2 04 Jun 10:43:29 10:47:37 70° 285° (WNW) 10:51:44 437.432
ANTELSAT 04 Jun 10:43:56 10:48:27 54° 73° (ENE) 10:52:54 437.575/2403.000
UWE-3 04 Jun 10:56:20 11:00:31 51° 99° (E) 11:04:37 435.000/436.395/437.385
BRITE-PL 04 Jun 11:04:21 11:07:46 16° 300° (WNW) 11:10:52 437.365/2234.400
UKube-1 04 Jun 11:08:15 11:11:38 22° 93° (E) 11:15:06 .
